loading
|
Showing default

YAM-6, 59126

Orbit data source: Space-Track

YAM-6, 59126 is a payload satellite owned by Loft Orbital (US) in SSO that was launched on Mon, 04 Mar 2024 UTC via an FALCON 9 launch vehicle from the Air Force Western Test Range (AFWTR). Payloads include a variety of satellites, spacecraft, and rockets equipped with specific instruments for various scientific and technological missions. These include communications satellites like Starlink; space stations such as the ISS; scientific satellites like the Hubble; Earth observation satellites from companies like Planet Labs, Umbra, and HawkEye 360; GPS; miniature CubeSats for education and research; and military/defense satellites.

Loading next visibility...
Loading greatness...
YAM-6 details
Identifier
59126, 2024-043AE
Orbit
SSO
Last TLE update7 hours ago
Origin
Flag of USLoft Orbital (US)
ManufacturerLeoStella
Mission statusOperational
MissionDefense Technology
Bus & MotorYAM, Unknown motor
Mass87 kg wet, 87 kg dry
Launch date (UTC)
2024-03-04 (7 months ago)
Launch vehicle
FALCON 9
Launch site
Air Force Western Test Range (AFWTR)
Object type
Payload
Rocket body
Debris
Radar Cross SectionMedium (>0.1 m² and <1 m²)

Expand to show TLE details & history

TLE from 7 hours ago
0 YAM-6
1 59126U 24043AE  24261.60639356  .00034596  00000-0  15633-2 0  9996
2 59126  97.4841  24.5353 0010917 330.6688  29.3933 15.20815625 29849
Epoch: 2024-09-17T14:33Z
Definitive object data (Epoch: 2024-09-17T14:33:12.403Z)
Latitude-0.00006°
Longitude169.21499°
Altitude499.923 km
Speed7.618 km/s
True Right ascension01h 38m 08s
True Declination0° 00' 00"
Sunlit
Object was in full shadow at TLE epoch
Predictive object data (real-time)
Latitude40.71347°
Longitude-4.04312°
Altitude516.639 km
Speed7.605 km/s
Apparent Right ascension11h 34m 09s
Apparent Declination43° 07' 60"
Sunlit
Object is in daylight
Predictive observer data (real-time)
Local Sidereal Time14:17:28
Azimuth289.618° WNW
Elevation59.568°
Doppler factor1
Orbital elements
Apogee507.856 km
Perigee492.838 km
Semi-major axis6,878.484 km
Eccentricity0.0010917
Inclination97.4841°
RAAN24.5353°
Arg. of periapsis330.6688°
True anomaly29.45477°
Mean anomaly29.3933°
Eccentric anomaly29.42403°
Mean motion3.80456 °/min
BSTAR0.0015633
Period94.62 mins
No data available

YAM-6 Visibility forecast

Observer location: 39.9160978°, -105.1181434

YAM-6 is not visible in the next 10 days
Span
Click to sort rows by Start time (UTC) header in descending order
Start Az.
Max El. time (UTC)
Max El. Az.
Max El.
End time (UTC)
End Az.